#timestamp,LO_Frequency,Hit,StdDev 
1501131615.8,286047000.9,N,1.5
1501131635.6,286047000.0,N,1.5
1501131655.5,286047000.4,N,1.5
1501131675.3,286047000.7,N,1.4
1501131695.2,286047001.1,N,1.4
1501131715.9,286047000.6,N,1.3
1501131735.7,286046999.8,N,1.3
1501131775.0,286047000.9,P,0.1
1501131775.9,286047000.9,P,0.0
1501131795.8,286047000.7,P,0.1
1501131815.6,286047000.4,P,0.2
1501131835.4,286046999.9,N,0.4
1501131855.3,286047000.3,N,0.4
1501131875.1,286047002.4,P,0.7
1501131895.9,286046999.9,N,0.7
1501131915.7,286047002.8,P,0.9
1501131935.5,286047002.2,N,1.0
1501131955.9,286047004.2,P,0.0
1501131975.7,286047001.3,P,1.4
1501131995.6,286047004.3,P,1.3
1501132015.4,286047001.9,N,1.3
1501132035.2,286047002.4,N,1.2
1501132055.1,286047002.8,N,1.1
1501132056.0,286047002.8,N,1.1
1501132075.8,286047002.2,N,1.0
1501132095.7,286047001.9,N,1.0
1501132115.5,286047001.5,N,1.0
1501132135.3,286047002.8,N,1.0
1501132155.2,286047000.2,N,1.2
1501132175.0,286047002.4,N,1.1
1501132175.9,286047002.4,N,1.1
1501132195.8,286047001.6,N,1.1
1501132215.6,286047002.8,N,1.0
1501132235.4,286047002.2,N,1.0
1501132255.3,286047000.1,N,1.1
1501132275.1,286047000.0,N,1.2
1501132295.9,286047000.1,N,1.3
1501132315.7,286047002.8,N,1.2
1501132335.5,286046999.7,N,1.3
1501132355.4,286047001.9,N,1.3
1501132375.2,286047001.5,N,1.3
1501132395.6,286047003.9,P,0.0
1501132415.4,286046999.7,P,2.0
1501132435.2,286047000.4,N,1.9
1501132455.1,286047001.2,N,1.8
1501132456.0,286047001.2,N,1.6
1501132475.8,286046998.4,N,1.9
1501132495.7,286047000.6,N,1.8
1501132515.5,286046998.3,N,1.9
1501132535.4,286046999.3,N,1.9
1501132555.2,286046998.7,N,1.9
1501132575.0,286046998.6,N,1.9
1501132575.9,286046998.6,N,1.9
1501132595.8,286046998.3,N,1.9
1501132615.6,286046999.9,N,1.8
1501132635.4,286047000.3,N,1.7
1501132655.3,286047000.0,N,1.7
1501132675.1,286047001.2,N,1.7
1501132695.9,286046998.7,N,1.6
1501132715.7,286046998.5,N,1.6
1501132735.5,286046998.9,N,1.6
1501132755.4,286046998.6,N,1.6
1501132775.2,286046998.1,N,1.6
1501132795.1,286046998.5,N,1.6
1501132796.0,286046998.5,N,1.6
1501132815.8,286046998.1,N,1.6
1501132835.6,286047001.1,N,1.6
1501132855.5,286046998.7,N,1.6
1501132875.3,286047000.7,N,1.5
1501132895.1,286046999.8,N,1.5
1501132915.9,286047000.4,N,1.3
1501132935.1,286046999.0,N,1.0
1501132955.9,286046999.2,N,1.0
1501132975.7,286046999.0,N,1.0
1501132995.5,286046999.2,N,1.0
1501133015.4,286046998.4,N,0.9
1501133035.5,286046998.5,N,0.9
1501133055.3,286047000.8,N,0.9
1501133075.1,286047000.0,N,0.9
1501133095.9,286047000.0,N,0.9
1501133115.7,286047002.6,N,1.1
1501133135.6,286046999.7,N,1.1
1501133155.4,286046999.9,N,1.1
1501133175.2,286047000.9,N,1.1
1501133195.6,286047001.9,N,1.2
1501133215.5,286047001.6,N,1.2
1501133235.3,286047002.6,N,1.3
1501133255.1,286047002.4,N,1.4
1501133275.9,286047000.4,N,1.4
1501133295.7,286047002.7,N,1.4
1501133315.6,286047002.5,N,1.5
1501133335.4,286046999.7,N,1.5
1501133355.2,286047000.4,N,1.4
1501133375.1,286046999.7,N,1.4
1501133376.0,286046999.7,N,1.3
1501133395.8,286047000.2,N,1.3
1501133415.7,286047002.3,N,1.3
1501133435.5,286047002.2,N,1.3
1501133455.3,286046999.7,N,1.3
1501133475.2,286047000.5,N,1.3
1501133495.0,286046998.6,N,1.4
1501133495.9,286046998.6,N,1.4
1501133515.8,286047000.6,N,1.3
1501133535.6,286047000.1,N,1.3
1501133555.4,286047000.4,N,1.3
1501133575.3,286047002.4,N,1.3
1501133595.1,286047000.4,N,1.2
1501133615.8,286047000.8,N,1.2
1501133635.7,286046998.4,N,1.3
1501133655.5,286047001.2,N,1.3
1501133675.4,286046998.3,N,1.3
1501133695.2,286046998.2,N,1.4
1501133715.0,286047000.2,N,1.4
1501133715.9,286047000.2,N,1.4
1501133735.8,286046999.9,N,1.3
1501133755.6,286047000.1,N,1.3
1501133775.5,286047002.0,N,1.3
1501133795.3,286047001.9,N,1.3
1501133815.1,286047002.3,N,1.3
1501133835.9,286047000.2,N,1.2
1501133855.7,286047002.6,N,1.3
1501133875.5,286047002.2,N,1.3
1501133895.4,286047000.5,N,1.3
1501133915.2,286047000.3,N,1.3
1501133935.1,286047000.9,N,1.3
1501133936.0,286047000.9,N,1.3
1501133955.8,286047000.1,N,1.2
1501133975.6,286047000.3,N,1.2
1501133995.5,286046999.7,N,1.2
1501134015.3,286046999.8,N,1.2
1501134035.2,286047000.0,N,1.2
1501134055.9,286047000.8,N,1.1
1501134075.7,286047000.6,N,1.1
1501134095.6,286047000.4,N,1.1
1501134115.4,286047002.4,N,1.1
1501134135.3,286047002.4,N,1.1
1501134155.1,286047000.1,N,1.2
1501134156.0,286047000.1,N,1.2
1501134175.8,286047000.2,N,1.1
1501134195.7,286046999.9,N,1.1
1501134215.5,286047002.1,N,1.0
1501134235.4,286047002.3,N,1.0
1501134255.2,286047002.8,N,1.0
1501134275.0,286047000.4,N,1.0
1501134275.9,286047000.4,N,1.0
1501134295.8,286047000.2,N,1.0
1501134315.6,286047002.2,N,1.0
1501134335.5,286046999.8,N,1.0
1501134355.3,286047000.4,N,1.0
1501134375.1,286047000.9,N,1.0
1501134395.9,286046998.1,N,1.0
1501134415.7,286047000.9,N,1.0
1501134435.6,286047001.1,N,1.0
1501134455.4,286047000.9,N,1.0
1501134475.2,286047001.0,N,1.0
1501134495.1,286047001.0,N,1.0
1501134496.0,286047001.0,N,1.0
1501134515.8,286047000.8,N,1.0
1501134535.7,286047001.1,N,1.0
1501134555.5,286047001.1,N,1.0
1501134575.3,286047000.0,N,1.0
1501134595.2,286047002.4,N,1.0
1501134615.0,286047000.9,N,1.0
1501134615.9,286047000.9,N,1.0
1501134635.8,286047002.8,N,1.0
1501134655.6,286046999.7,N,1.0
1501134675.4,286047000.0,N,1.0
1501134695.3,286047000.2,N,1.0
1501134715.1,286047002.8,N,1.1
1501134735.8,286047002.3,N,1.1
1501134755.1,286047000.1,N,1.1
1501134756.0,286047000.1,N,1.0
1501134775.8,286047002.3,N,1.0
1501134795.7,286047000.8,N,1.0
1501134815.5,286046999.7,N,1.0
1501134835.4,286046999.7,N,1.0
1501134855.2,286047002.4,N,1.0
1501134875.0,286047002.1,N,1.0
1501134895.4,286047002.1,N,1.1
1501134915.3,286047002.6,N,1.1
1501134935.1,286047001.3,N,1.0
1501134936.0,286047001.3,N,1.0
1501134955.8,286047000.1,N,1.0
1501134975.7,286047000.7,N,1.0
1501134995.5,286046998.4,N,1.1
1501135035.4,286046998.7,P,0.3
1501135055.2,286046998.7,P,0.3
1501135075.0,286047000.3,N,0.7
1501135075.9,286047000.3,N,0.7
1501135095.8,286047000.4,N,0.7
1501135115.6,286046998.4,N,0.8
1501135135.4,286047000.8,N,0.9
1501135155.3,286047000.6,N,0.9
1501135175.1,286046998.3,N,0.9
1501135195.9,286046998.8,N,0.9
